Flag for U.S.A. Weather past 2 weeks in New York, New York, U.S.A.

Now
45 °F

Clear.


Feels Like: 44 °F
Forecast: 38 / 62 °F
Wind: 3 mph from North

Location: New York City - Central Park

Current Time: Apr 2, 2015 at 12:03:07 AM

Latest Report: Apr 1, 2015 at 10:51 PM


Visibility: 10 mi

Pressure: 30.21 "Hg

Humidity: 24%

Dew point: 10 °F

Location of New YorkLocation

Historic Weather in New York — Graph

°F

New York temperature yesterday

Maximum temperature yesterday: 50 °F (at 3:51 PM)
Minimum temperature yesterday: 32 °F (at 5:51 AM)
Average temperature yesterday: 41 °F

Past Weeks' High & Low Weather Summary

 TemperatureHumidityPressure
High62 °F (Mar 26, 8:51 PM)93% (Mar 26, 1:02 PM)30.41 "Hg (Mar 26, 1:02 PM)
Low23 °F (Mar 23, 6:51 AM)16% (Mar 29, 7:51 PM)29.59 "Hg (Mar 26, 7:51 PM)
Average38 °F50%30.05 "Hg
* Reported Mar 17 10:51 PM — Apr 1 10:51 PM, New York, Weather by CustomWeather, © 2015

Note: Actual official high and low records may vary slightly from our data, if they occured in-between our weather recording intervals... More about our weather records

Advertising

New York weather history for previous 24 hours

 ConditionsComfort  
Time TempWeatherWind HumidityBarometerVisibility
10:51 PM
Wed, Apr 1
45 °FClear.3 mph24%30.21 "Hg10 mi
9:51 PM46 °FClear.No wind26%30.20 "Hg10 mi
8:51 PM47 °FClear.No wind25%30.19 "Hg10 mi
7:51 PM48 °FSunny.8 mph24%30.15 "Hg10 mi
6:51 PM50 °FSunny.6 mph25%30.12 "Hg10 mi
5:51 PM50 °FSunny.9 mph25%30.10 "Hg10 mi
4:51 PM50 °FSunny.8 mph29%30.07 "Hg10 mi
3:51 PM50 °FSunny.8 mph27%30.07 "Hg10 mi
2:51 PM47 °FSunny.7 mph29%30.08 "Hg10 mi
1:51 PM46 °FSunny.5 mph31%30.09 "Hg10 mi
12:51 PM44 °FSunny.9 mph28%30.08 "Hg10 mi
11:51 AM41 °FScattered clouds.7 mph30%30.08 "Hg10 mi
10:51 AM38 °FSunny.8 mph37%30.08 "Hg10 mi
9:51 AM35 °FSunny.3 mph48%30.08 "Hg10 mi
8:51 AM35 °FSunny.3 mph52%30.04 "Hg10 mi
7:51 AM33 °FSunny.No wind58%30.01 "Hg10 mi
6:51 AM32 °FClear.No wind59%29.97 "Hg10 mi
5:51 AM32 °FClear.3 mph64%29.94 "Hg10 mi
4:51 AM33 °FClear.6 mph63%29.90 "Hg10 mi
3:51 AM34 °FClear.8 mph70%29.88 "Hg10 mi
2:51 AM35 °FClear.10 mph70%29.84 "Hg10 mi
1:51 AM35 °FClear.3 mph78%29.83 "Hg10 mi
12:51 AM35 °FClear.6 mph85%29.82 "Hg10 mi
Weather by CustomWeather, © 2015

See weather overviewHow to use our weather pages